EW9926 Weather Reports


time (UTC)temp
C
wind
direction
speed
KPH
gust
KPH
rain 1hr
cm
rain 24hr
cm
rain mn
cm
humidity
%
barometer
mb
20260505171605 26 237 3.2 11.3 0.00 0.03 0.03 40 1009.0
20260505171050 26 262 3.2 8.0 0.00 0.03 0.03 43 1009.2
20260505170548 26 255 3.2 12.9 0.00 0.03 0.03 42 1009.2
20260505170048 26 267 4.8 12.9 0.00 0.03 0.03 39 1009.2
20260505165547 26 266 6.4 11.3 0.00 0.03 0.03 40 1009.2
20260505165047 26 244 3.2 14.5 0.00 0.03 0.03 41 1009.3
20260505164546 26 238 3.2 17.7 0.00 0.03 0.03 44 1009.4
20260505164045 26 214 1.6 17.7 0.00 0.03 0.03 43 1009.4
20260505163544 26 257 3.2 8.0 0.00 0.03 0.03 42 1009.3
20260505163044 26 259 3.2 8.0 0.00 0.03 0.03 43 1009.4
20260505162543 26 262 3.2 9.7 0.00 0.03 0.03 43 1009.5
20260505162043 26 271 3.2 14.5 0.00 0.03 0.03 43 1009.5
20260505161542 26 268 4.8 14.5 0.00 0.03 0.03 45 1009.4
20260505161040 25 262 3.2 9.7 0.00 0.03 0.03 42 1009.6
20260505160542 25 263 4.8 9.7 0.00 0.03 0.03 45 1009.8
20260505153033 24 265 3.2 6.4 0.00 0.03 0.03 45 1010.2
20260505152531 23 241 1.6 6.4 0.00 0.03 0.03 48 1010.2
20260505152030 23 248 3.2 6.4 0.00 0.03 0.03 49 1010.2
20260505151532 23 262 3.2 6.4 0.00 0.03 0.03 50 1010.2
20260505151027 23 241 1.6 6.4 0.00 0.03 0.03 53 1010.1
20260505150526 22 237 1.6 6.4 0.00 0.03 0.03 50 1010.2
20260505140513 20 279 1.6 8.0 0.00 0.03 0.03 59 1010.8
20260505130105 17 236 3.2 8.0 0.00 0.03 0.03 62 1011.1
20260505124600 17 258 1.6 8.0 0.00 0.03 0.03 64 1011.0
20260505124058 17 240 3.2 6.4 0.00 0.03 0.03 65 1011.0
20260505123558 17 266 3.2 6.4 0.00 0.03 0.03 65 1010.9
20260505123100 17 264 1.6 6.4 0.00 0.03 0.03 65 1010.7
20260505122553 16 264 1.6 4.8 0.00 0.03 0.03 66 1010.7
20260505122053 16 239 1.6 4.8 0.00 0.03 0.03 67 1010.7
20260505121620 16 234 1.6 4.8 0.00 0.03 0.03 68 1010.7
20260505121051 16 234 1.6 6.4 0.00 0.03 0.03 68 1010.7
20260505120550 16 234 1.6 6.4 0.00 0.03 0.03 68 1010.7
20260505120048 16 250 1.6 4.8 0.00 0.03 0.03 70 1010.6
20260505115547 15 233 1.6 4.8 0.00 0.03 0.03 71 1010.6
20260505115047 15 214 0.0 3.2 0.00 0.03 0.03 72 1010.7
20260505114547 15 164 0.0 3.2 0.00 0.03 0.03 73 1010.6
20260505114047 14 164 0.0 3.2 0.00 0.03 0.03 76 1010.6
20260505113548 14 164 0.0 1.6 0.00 0.03 0.03 77 1010.7
20260505113049 13 164 0.0 3.2 0.00 0.03 0.03 76 1010.6
20260505112546 13 164 0.0 4.8 0.00 0.03 0.03 77 1010.6
20260505112046 13 161 1.6 4.8 0.00 0.03 0.03 78 1010.6
20260505111549 13 163 0.0 4.8 0.00 0.03 0.03 79 1010.5
20260505111048 12 185 1.6 3.2 0.00 0.03 0.03 80 1010.6
20260505110545 12 185 0.0 3.2 0.00 0.03 0.03 81 1010.6
20260505102041 11 185 0.0 3.2 0.00 0.03 0.03 80 1010.4
20260505101543 11 185 1.6 3.2 0.00 0.03 0.03 79 1010.4
20260505101040 11 185 0.0 1.6 0.00 0.03 0.03 79 1010.4
20260505100539 11 185 0.0 3.2 0.00 0.03 0.03 79 1010.3
20260505100051 11 185 0.0 3.2 0.00 0.03 0.03 79 1010.3
20260505095542 12 185 0.0 3.2 0.00 0.03 0.03 78 1010.2
20260505095041 12 185 0.0 3.2 0.00 0.03 0.03 78 1010.2
20260505094541 12 185 0.0 1.6 0.00 0.03 0.03 78 1010.4
20260505094036 12 185 0.0 1.6 0.00 0.03 0.03 77 1010.4
20260505093534 12 185 0.0 1.6 0.00 0.03 0.03 77 1010.3
20260505093033 12 185 0.0 3.2 0.00 0.03 0.03 77 1010.3
20260505092534 12 185 0.0 3.2 0.00 0.03 0.03 76 1010.2
20260505092032 13 185 0.0 3.2 0.00 0.03 0.03 76 1010.2
20260505091536 13 185 0.0 3.2 0.00 0.03 0.03 74 1010.1
20260505091030 13 185 0.0 3.2 0.00 0.03 0.03 75 1010.0
20260505090528 13 185 0.0 3.2 0.00 0.03 0.03 74 1009.9
20260505090028 13 185 0.0 3.2 0.00 0.03 0.03 73 1009.8
20260505085530 13 185 0.0 0.0 0.00 0.03 0.03 72 1009.7
20260505085030 13 185 0.0 0.0 0.00 0.03 0.03 72 1009.7
20260505084528 13 185 0.0 0.0 0.00 0.03 0.03 72 1009.6
20260505084027 13 185 0.0 1.6 0.00 0.03 0.03 73 1009.6
20260505083527 13 185 0.0 3.2 0.00 0.03 0.03 73 1009.6
20260505083036 13 185 0.0 3.2 0.00 0.03 0.03 73 1009.7
20260505082529 13 185 0.0 1.6 0.00 0.03 0.03 73 1009.7
20260505082029 13 185 0.0 1.6 0.00 0.03 0.03 75 1009.7
20260505081531 13 185 0.0 1.6 0.00 0.03 0.03 75 1009.7
20260505081027 13 185 0.0 1.6 0.03 0.03 0.03 77 1009.7
20260505080531 13 185 0.0 1.6 0.03 0.03 0.03 77 1009.8
20260505080043 13 185 0.0 1.6 0.03 0.03 0.03 77 1009.7
20260505075528 13 185 0.0 1.6 0.03 0.03 0.03 78 1009.7
20260505075029 13 185 0.0 1.6 0.03 0.03 0.03 77 1009.8
20260505074526 13 185 0.0 0.0 0.03 0.03 0.03 77 1009.8
20260505074027 13 185 0.0 0.0 0.03 0.03 0.03 77 1009.7
20260505073524 13 185 0.0 1.6 0.03 0.03 0.03 77 1009.8
20260505073026 13 185 0.0 3.2 0.03 0.03 0.03 76 1009.7
20260505072522 13 185 0.0 3.2 0.03 0.03 0.03 75 1009.7
20260505072021 14 185 1.6 3.2 0.03 0.03 0.03 74 1009.8
20260505071528 14 185 1.6 3.2 0.03 0.03 0.03 72 1009.7
20260505071022 14 122 0.0 3.2 0.00 0.00 0.00 69 1009.7
20260505070517 15 122 0.0 1.6 0.00 0.00 0.00 66 1009.6
20260505070017 15 122 0.0 1.6 0.00 0.00 0.00 66 1009.7
20260505065517 15 122 0.0 1.6 0.00 0.00 0.00 65 1009.7
20260505065019 15 122 0.0 1.6 0.00 0.00 0.00 65 1009.7
20260505064516 15 122 0.0 3.2 0.00 0.00 0.00 64 1009.7
20260505064015 15 122 0.0 3.2 0.00 0.00 0.00 64 1009.8
20260505063516 15 122 0.0 3.2 0.00 0.00 0.00 64 1009.8
20260505063026 15 122 0.0 3.2 0.00 0.00 0.00 64 1009.8
20260505062516 15 122 0.0 3.2 0.00 0.00 0.00 63 1009.8
20260505062017 15 122 0.0 3.2 0.00 0.00 0.00 64 1009.8
20260505061515 15 122 0.0 3.2 0.00 0.00 0.00 63 1009.8
20260505061017 15 122 0.0 3.2 0.00 0.00 0.00 64 1009.8
20260505060513 15 122 0.0 3.2 0.00 0.00 0.00 63 1009.8
20260505060013 15 122 0.0 3.2 0.00 0.00 0.00 63 1009.8
20260505055513 15 122 0.0 3.2 0.00 0.00 0.00 63 1009.7
20260505055013 15 122 0.0 3.2 0.00 0.00 0.00 63 1009.7
20260505054514 15 122 0.0 3.2 0.00 0.00 0.00 63 1009.7
20260505054012 15 122 0.0 4.8 0.00 0.00 0.00 63 1009.6
20260505053512 15 122 0.0 4.8 0.00 0.00 0.00 62 1009.7
20260505053012 15 101 0.0 8.0 0.00 0.00 0.00 62 1009.6
20260505052511 15 187 1.6 8.0 0.00 0.00 0.00 62 1009.5
20260505052011 15 102 0.0 4.8 0.00 0.00 0.00 61 1009.7
20260505051509 15 101 0.0 4.8 0.00 0.00 0.00 61 1009.7
20260505051009 15 145 0.0 1.6 0.00 0.00 0.00 60 1009.8
20260505050508 15 145 0.0 1.6 0.00 0.00 0.00 60 1009.8
20260505041611 16 165 3.2 8.0 0.00 0.00 0.00 55 1009.7
20260505041100 16 186 1.6 12.9 0.00 0.00 0.00 54 1009.7
20260505040559 16 158 3.2 14.5 0.00 0.00 0.00 53 1009.7
20260505040104 16 143 4.8 16.1 0.00 0.00 0.00 54 1009.6
20260505035558 16 158 3.2 16.1 0.00 0.00 0.00 53 1009.6
20260505035158 16 160 4.8 14.5 0.00 0.00 0.00 53 1009.6
20260505034558 16 153 3.2 11.3 0.00 0.00 0.00 54 1009.7
20260505034100 16 170 4.8 11.3 0.00 0.00 0.00 53 1009.7
20260505033558 16 156 3.2 12.9 0.00 0.00 0.00 54 1009.7
20260505033058 16 146 4.8 12.9 0.00 0.00 0.00 53 1009.8
20260505032559 16 135 1.6 9.7 0.00 0.00 0.00 53 1009.8
20260505032057 16 121 3.2 11.3 0.00 0.00 0.00 53 1009.8
20260505031605 16 146 3.2 12.9 0.00 0.00 0.00 53 1009.9
20260505031057 16 148 4.8 12.9 0.00 0.00 0.00 53 1009.9
20260505030557 16 149 4.8 14.5 0.00 0.00 0.00 53 1009.8
20260505030104 16 158 4.8 14.5 0.00 0.00 0.00 53 1009.8
20260505025557 16 150 3.2 12.9 0.00 0.00 0.00 52 1010.0
20260505025059 16 113 4.8 11.3 0.00 0.00 0.00 53 1010.0
20260505024607 16 128 4.8 11.3 0.00 0.00 0.00 53 1010.1
20260505024056 16 128 4.8 11.3 0.00 0.00 0.00 52 1010.0
20260505023556 16 165 3.2 11.3 0.00 0.00 0.00 52 1010.1
20260505023059 16 137 3.2 8.0 0.00 0.00 0.00 52 1010.1
20260505022559 16 145 3.2 11.3 0.00 0.00 0.00 51 1010.1
20260505022057 16 155 4.8 11.3 0.00 0.00 0.00 51 1010.1
20260505021559 16 150 1.6 8.0 0.00 0.00 0.00 51 1010.2
20260505021055 16 155 3.2 11.3 0.00 0.00 0.00 50 1010.1
20260505020554 16 155 1.6 11.3 0.00 0.00 0.00 50 1010.2
20260505020103 16 144 3.2 8.0 0.00 0.00 0.00 49 1010.2
20260505015554 17 118 3.2 9.7 0.00 0.00 0.00 49 1010.1
20260505015054 17 147 3.2 8.0 0.00 0.00 0.00 48 1010.2
20260505014554 17 145 3.2 8.0 0.00 0.00 0.00 48 1010.1
20260505014055 17 169 3.2 8.0 0.00 0.00 0.00 48 1010.1
20260505013553 17 159 3.2 11.3 0.00 0.00 0.00 48 1010.1
20260505013053 17 156 4.8 11.3 0.00 0.00 0.00 47 1010.0
20260505012553 17 148 1.6 9.7 0.00 0.00 0.00 47 1010.0
20260505012053 17 152 3.2 8.0 0.00 0.00 0.00 47 1010.0
20260505011553 17 160 3.2 8.0 0.00 0.00 0.00 47 1009.9
20260505011052 17 149 1.6 8.0 0.00 0.00 0.00 46 1009.8
20260505010555 17 159 3.2 8.0 0.00 0.00 0.00 45 1009.8
20260505010108 17 131 1.6 6.4 0.00 0.00 0.00 45 1009.7
20260505005552 17 153 0.0 6.4 0.00 0.00 0.00 45 1009.7
20260505005052 17 153 1.6 6.4 0.00 0.00 0.00 45 1009.6
20260505004554 17 152 1.6 6.4 0.00 0.00 0.00 45 1009.5
20260505004052 17 155 1.6 4.8 0.00 0.00 0.00 45 1009.5
20260505003551 17 155 1.6 6.4 0.00 0.00 0.00 45 1009.5
20260505003053 18 149 1.6 6.4 0.00 0.00 0.00 44 1009.5
20260505002551 18 153 1.6 4.8 0.00 0.00 0.00 44 1009.4
20260505002051 18 186 0.0 3.2 0.00 0.00 0.00 44 1009.4
20260505001551 18 186 0.0 3.2 0.00 0.00 0.00 44 1009.3
20260505001054 18 160 0.0 1.6 0.00 0.00 0.00 44 1009.3
20260505000550 18 160 0.0 4.8 0.00 0.00 0.00 43 1009.3
20260505000058 18 160 0.0 4.8 0.00 0.00 0.00 44 1009.3
20260504235554 18 157 0.0 6.4 0.00 0.00 0.00 42 1009.3
20260504235050 18 196 1.6 8.0 0.00 0.00 0.00 43 1009.3
20260504234551 18 150 1.6 8.0 0.00 0.00 0.00 42 1009.2
20260504234049 18 158 3.2 9.7 0.00 0.00 0.00 43 1009.1
20260504233553 18 142 0.0 9.7 0.00 0.00 0.00 42 1009.1
20260504233054 19 147 0.0 8.0 0.00 0.00 0.00 43 1009.0
20260504232550 19 216 0.0 3.2 0.00 0.00 0.00 42 1009.1
20260504232049 19 216 1.6 3.2 0.00 0.00 0.00 43 1009.0
20260504231551 19 56 1.6 4.8 0.00 0.00 0.00 42 1009.0
20260504231049 19 228 0.0 4.8 0.00 0.00 0.00 42 1009.0
20260504230552 19 228 1.6 11.3 0.00 0.00 0.00 42 1008.9
20260504230108 19 157 1.6 4.8 0.00 0.00 0.00 42 1008.9
20260504225650 20 212 1.6 4.8 0.00 0.00 0.00 42 1008.9
20260504225051 20 236 1.6 4.8 0.00 0.00 0.00 42 1008.9
20260504224600 20 236 1.6 11.3 0.00 0.00 0.00 41 1008.9
20260504224047 20 166 1.6 11.3 0.00 0.00 0.00 41 1008.9
20260504223547 20 111 1.6 11.3 0.00 0.00 0.00 42 1008.9
20260504223048 20 239 1.6 8.0 0.00 0.00 0.00 41 1008.9
20260504222548 20 245 0.0 6.4 0.00 0.00 0.00 42 1008.9
20260504222047 20 245 1.6 6.4 0.00 0.00 0.00 43 1009.0
20260504221547 20 262 0.0 6.4 0.00 0.00 0.00 41 1009.0
20260504221046 20 236 3.2 11.3 0.00 0.00 0.00 41 1009.0
20260504220546 20 226 1.6 11.3 0.00 0.00 0.00 40 1009.0
20260504220053 20 244 1.6 11.3 0.00 0.00 0.00 41 1009.0
20260504215546 20 231 1.6 11.3 0.00 0.00 0.00 40 1009.1
20260504215045 21 177 1.6 6.4 0.00 0.00 0.00 38 1009.0
20260504214547 21 210 1.6 6.4 0.00 0.00 0.00 40 1009.1
20260504214044 21 254 3.2 8.0 0.00 0.00 0.00 40 1009.1
20260504213544 21 216 3.2 8.0 0.00 0.00 0.00 39 1009.1
20260504213044 21 197 1.6 8.0 0.00 0.00 0.00 39 1009.0
20260504212543 21 230 3.2 6.4 0.00 0.00 0.00 40 1009.1
20260504212043 21 267 3.2 9.7 0.00 0.00 0.00 38 1009.2
20260504211543 21 268 3.2 9.7 0.00 0.00 0.00 40 1009.2
20260504211042 21 234 1.6 9.7 0.00 0.00 0.00 39 1009.2
20260504210545 21 234 4.8 9.7 0.00 0.00 0.00 39 1009.2
20260504210054 21 239 1.6 11.3 0.00 0.00 0.00 42 1009.2
20260504205542 21 262 3.2 11.3 0.00 0.00 0.00 38 1009.2
20260504205039 21 250 3.2 8.0 0.00 0.00 0.00 40 1009.3
20260504204547 21 259 1.6 8.0 0.00 0.00 0.00 39 1009.4
20260504204039 21 248 1.6 16.1 0.00 0.00 0.00 40 1009.4
20260504203539 21 169 4.8 16.1 0.00 0.00 0.00 40 1009.4
20260504203043 21 257 1.6 11.3 0.00 0.00 0.00 40 1009.4
20260504202539 21 236 3.2 11.3 0.00 0.00 0.00 39 1009.4
20260504202039 21 229 3.2 6.4 0.00 0.00 0.00 39 1009.5
20260504201544 21 273 3.2 6.4 0.00 0.00 0.00 39 1009.4
20260504201037 21 243 3.2 11.3 0.00 0.00 0.00 39 1009.5
20260504200537 21 233 3.2 11.3 0.00 0.00 0.00 38 1009.6
20260504200049 21 249 3.2 11.3 0.00 0.00 0.00 40 1009.6
20260504195535 21 261 3.2 11.3 0.00 0.00 0.00 36 1009.7
20260504195035 21 271 4.8 11.3 0.00 0.00 0.00 38 1009.7
20260504194536 21 228 3.2 11.3 0.00 0.00 0.00 40 1009.7
20260504194036 21 228 3.2 11.3 0.00 0.00 0.00 38 1009.7
20260504193534 21 234 4.8 9.7 0.00 0.00 0.00 38 1009.8
20260504193034 21 234 4.8 9.7 0.00 0.00 0.00 37 1009.8
20260504192533 21 259 3.2 9.7 0.00 0.00 0.00 38 1009.8
20260504192034 21 241 3.2 11.3 0.00 0.00 0.00 37 1009.9
20260504191534 21 234 3.2 8.0 0.00 0.00 0.00 39 1009.9
20260504191032 21 268 3.2 11.3 0.00 0.00 0.00 36 1009.9
20260504190532 21 262 4.8 11.3 0.00 0.00 0.00 35 1010.1
20260504190031 21 255 3.2 6.4 0.00 0.00 0.00 40 1010.1
20260504185529 21 255 3.2 9.7 0.00 0.00 0.00 38 1010.2
20260504185028 20 248 1.6 9.7 0.00 0.00 0.00 37 1010.2
20260504184535 21 270 3.2 9.7 0.00 0.00 0.00 38 1010.4
20260504184031 21 276 4.8 9.7 0.00 0.00 0.00 39 1010.5
20260504183526 20 232 1.6 11.3 0.00 0.00 0.00 37 1010.4
20260504183033 20 263 3.2 12.9 0.00 0.00 0.00 36 1010.6
20260504182525 20 255 4.8 12.9 0.00 0.00 0.00 36 1010.6
20260504182024 20 279 1.6 8.0 0.00 0.00 0.00 38 1010.6
20260504181523 20 264 4.8 9.7 0.00 0.00 0.00 37 1010.7
20260504181026 20 272 4.8 16.1 0.00 0.00 0.00 36 1010.8
20260504180522 20 280 3.2 16.1 0.00 0.00 0.00 39 1010.9
20260504180023 20 269 4.8 9.7 0.00 0.00 0.00 39 1011.0
20260504175520 20 238 4.8 9.7 0.00 0.00 0.00 39 1011.1
20260504175020 20 230 3.2 12.9 0.00 0.00 0.00 35 1011.2
20260504174520 20 233 3.2 12.9 0.00 0.00 0.00 39 1011.2
20260504174023 20 251 4.8 9.7 0.00 0.00 0.00 37 1011.2
20260504173522 20 239 4.8 11.3 0.00 0.00 0.00 39 1011.3
20260504173019 20 268 4.8 11.3 0.00 0.00 0.00 36 1011.3
20260504172521 20 257 4.8 9.7 0.00 0.00 0.00 36 1011.4
20260504172017 20 249 1.6 6.4 0.00 0.00 0.00 44 1011.4